Regional Weather Roundup
Issued by NWS Cleveland, OH

Home | Current Version | Previous Version | Graphics & Text | Print | Product List | Glossary On
Versions: 1 2 3 4 5 6 7 8 9 10 11 12 13 14 15 16 17 18 19 20 21 22 23 24 25 26 27 28 29 30 31 32 33 34 35 36 37 38 39 40 41 42 43 44 45 46 47 48 49 50
000
ASUS41 KCLE 200310
RWRCLE
OHIO REGIONAL WEATHER ROUNDUP
NATIONAL WEATHER SERVICE CLEVELAND, OH
1000 PM EST FRI DEC 19 2014

NOTE: "FAIR" INDICATES FEW OR NO CLOUDS BELOW 12,000 FEET WITH NO
SIGNIFICANT WEATHER AND/OR OBSTRUCTIONS TO VISIBILITY.

OHZ001>008-015>018-024>027-034-035-043-044-200400-
   NORTHWEST OHIO

CITY           SKY/WX    TMP DP  RH WIND       PRES   REMARKS
DEFIANCE       CLOUDY    25  21  85 CALM      30.29S
FINDLAY        CLOUDY    30  23  75 CALM      30.27S
TOLEDO EXPRESS CLOUDY    30  22  72 CALM      30.28S
TOLEDO EXEC    CLOUDY    30  24  78 SE3       30.30R
LIMA           MOCLDY    29  21  72 CALM      30.26F
$$

OHZ009>014-019>023-028>033-038-089-200400-
   NORTHEAST OHIO

CITY           SKY/WX    TMP DP  RH WIND       PRES   REMARKS
CLE-HOPKINS    CLOUDY    29  20  69 N3        30.31F
CLE-LAKEFRONT  CLOUDY    31  21  66 W8        30.29F WCI  23
CUY CO. ARPT   CLOUDY    32  23  69 NW9       30.28F WCI  24
LORAIN-ELYRIA  CLOUDY    29  22  75 NE3       30.29F
ASHTABULA      CLOUDY    29  21  72 W6        30.28F WCI  23
AKRON-CANTON   CLOUDY    29  21  72 N5        30.25F WCI  24
WOOSTER        CLOUDY    29  22  75 N5        30.27F WCI  24
MANSFIELD      CLOUDY    28  21  75 CALM      30.26S
YOUNGSTOWN     CLOUDY    28  20  71 N7        30.26F WCI  21
$$

OHZ042-051>053-060>062-070>072-077>081-200400-
  SOUTHWEST OHIO

CITY           SKY/WX    TMP DP  RH WIND       PRES   REMARKS
CINC-COVINGTON CLOUDY    30  20  66 E7        30.25F WCI  23
CINC-LUNKEN    CLOUDY    31  23  72 NE3       30.30F
HAMILTON       CLOUDY    31  24  75 E5        30.29F WCI  26
DAYTON         CLOUDY    30  22  72 CALM      30.28F
WRIGHT-PAT AFB CLOUDY    30  22  72 E3        30.28F
DAYTON GENERAL CLOUDY    30  22  72 E3        30.26F
WILMINGTON     CLOUDY    29  21  72 E5        30.26F WCI  24
$$

OHZ036-037-039>041-045>050-054>059-063>069-073>076-082>088-200400-
  CENTRAL AND SOUTHEAST OHIO

CITY           SKY/WX    TMP DP  RH WIND       PRES   REMARKS
COLUMBUS       CLOUDY    30  21  69 E3        30.29R
OSU AIRPORT    CLOUDY    30  22  72 N3        30.28S
BOLTON FIELD   CLOUDY    29  23  76 MISG      30.29S
RICKENBACK AFB CLOUDY    30  23  75 CALM      30.29R
NEWARK         CLOUDY    30  23  75 CALM      30.28S
MARION         CLOUDY    29  21  72 CALM      30.28S
LANCASTER      CLOUDY    43  23  45 E6        30.29S
ZANESVILLE     CLOUDY    30  22  72 CALM      30.28S
NEW PHILLY     CLOUDY    31  22  69 NE3       30.28F
$$



USA.gov is the U.S. government's official web portal to all federal, state and local government web resources and services.